Hourly Data Report for October 02, 2017

All times are specified in Local Standard Time (LST). Add 1 hour to adjust for Daylight Saving Time where and when it is observed.

PENTICTON A
BRITISH COLUMBIA

49°27'45.000" N
119°36'08.000" W
344.40 m
1126146
71889
YYF

Download Data

Hourly Data (October 2017)
Hourly Data Report for October 2, 2017
Temp Definition
°C
Dew Point Temp Definition
°C
Rel Hum Definition
%
Wind Dir Definition
10's deg

Wind Spd Definition
km/h
Visibility Definition
km
Stn Press Definition
kPa
Hmdx Definition


Wind Chill Definition


Weather Definition


TIME
00:00 Legend Double Dagger 11.2 1.8 52 36 13 24.1 97.81     LegendNANA
01:00 Legend Double Dagger 11.3 2.3 54 35 11 24.1 97.83     Mostly Cloudy
02:00 Legend Double Dagger 11.6 2.1 52 32 5 24.1 97.83     LegendNANA
03:00 Legend Double Dagger 11.7 2.1 52 35 20 24.1 97.84     LegendNANA
04:00 Legend Double Dagger 11.6 1.6 50 34 19 24.1 97.89     Cloudy
05:00 Legend Double Dagger 11.4 1.3 50 33 26 24.1 97.92     LegendNANA
06:00 Legend Double Dagger 11.0 1.1 50 33 21 24.1 97.94     LegendNANA
07:00 Legend Double Dagger 10.7 1.1 51 35 25 24.1 98.01     Mainly Clear
08:00 Legend Double Dagger 10.9 1.6 53 34 23 24.1 98.04     LegendNANA
09:00 Legend Double Dagger 13.1 1.8 46 35 27 24.1 98.06     LegendNANA
10:00 Legend Double Dagger 14.2 0.4 39 34 26 24.1 98.07     Mostly Cloudy
11:00 Legend Double Dagger 14.2 0.8 40 34 31 24.1 98.11     LegendNANA
12:00 Legend Double Dagger 15.7 0.6 36 35 36 24.1 98.12     LegendNANA
13:00 Legend Double Dagger 16.0 -1.2 31 34 33 24.1 98.11     Mostly Cloudy
14:00 Legend Double Dagger 16.2 -1.2 30 34 35 24.1 98.10     LegendNANA
15:00 Legend Double Dagger 16.5 0.3 33 1 24 24.1 98.13     LegendNANA
16:00 Legend Double Dagger 15.0 1.1 39 36 28 24.1 98.21     Mostly Cloudy
17:00 Legend Double Dagger 12.9 2.0 47 34 24 24.1 98.28     LegendNANA
18:00 Legend Double Dagger 11.0 1.8 53 32 12 24.1 98.32     LegendNANA
19:00 Legend Double Dagger 9.0 1.5 59 33 10 24.1 98.38     Mainly Clear
20:00 Legend Double Dagger 7.5 1.7 67 34 12 24.1 98.44     LegendNANA
21:00 Legend Double Dagger 8.1 1.2 62 35 14 24.1 98.46     LegendNANA
22:00 Legend Double Dagger 5.9 1.0 71 35 12 24.1 98.51     Mainly Clear
23:00 Legend Double Dagger 5.7 0.5 69 36 15 24.1 98.54     LegendNANA

Notes on Data Quality.

Legend

  • E = Estimated
  • M = Missing
  • NA = Not Available
  • ‡ = Partner data that is not subject to review by the National Climate Archives
Date modified: